GW3570 Weather Reports


Display with metric or nautical units.
time (UTC)temp
F
wind
direction
speed
MPH
gust
MPH
rain 1hr
in
rain 24hr
in
rain mn
in
humidity
%
barometer
mb
20260507234642 67 227 0.0 1.0 0.00 0.00 0.00 52 1013.3
20260507234138 67 207 6.0 8.0 0.00 0.00 0.00 49 1013.0
20260507233635 67 214 6.0 9.0 0.00 0.00 0.00 47 1013.2
20260507233134 67 202 5.0 6.0 0.00 0.00 0.00 45 1013.2
20260507232630 67 189 3.0 3.0 0.00 0.00 0.00 49 1013.3
20260507232127 67 227 1.0 2.0 0.00 0.00 0.00 51 1013.4
20260507231624 67 214 3.0 5.0 0.00 0.00 0.00 49 1013.4
20260507231121 67 186 4.0 5.0 0.00 0.00 0.00 48 1013.4
20260507230617 67 255 5.0 7.0 0.00 0.00 0.00 49 1013.5
20260507230114 67 227 1.0 2.0 0.00 0.00 0.00 48 1013.7
20260507225609 67 206 5.0 6.0 0.00 0.00 0.00 45 1013.6
20260507225106 67 210 6.0 7.0 0.00 0.00 0.00 46 1013.5
20260507224601 67 184 4.0 5.0 0.00 0.00 0.00 48 1013.7
20260507224058 68 238 1.0 3.0 0.00 0.00 0.00 48 1013.7
20260507223554 68 201 1.0 2.0 0.00 0.00 0.00 45 1013.6
20260507223051 68 213 4.0 5.0 0.00 0.00 0.00 47 1013.7
20260507222549 68 225 3.0 5.0 0.00 0.00 0.00 46 1013.9
20260507222045 68 184 5.0 6.0 0.00 0.00 0.00 46 1013.5
20260507221541 68 251 6.0 8.0 0.00 0.00 0.00 45 1013.9
20260507221038 69 231 2.0 3.0 0.00 0.00 0.00 47 1013.8
20260507220535 68 174 2.0 2.0 0.00 0.00 0.00 45 1013.8
20260507220033 69 187 4.0 5.0 0.00 0.00 0.00 47 1014.0
20260507215529 68 242 3.0 5.0 0.00 0.00 0.00 46 1014.0
20260507215027 69 178 4.0 5.0 0.00 0.00 0.00 46 1014.1
20260507214524 67 227 5.0 6.0 0.00 0.00 0.00 44 1013.9
20260507214020 68 217 1.0 2.0 0.00 0.00 0.00 48 1014.3
20260507213516 67 217 3.0 5.0 0.00 0.00 0.00 50 1014.1
20260507213013 68 250 4.0 5.0 0.00 0.00 0.00 47 1014.4
20260507212509 68 229 4.0 6.0 0.00 0.00 0.00 46 1014.2
20260507212006 69 263 6.0 6.0 0.00 0.00 0.00 46 1014.1
20260507211503 68 221 0.0 1.0 0.00 0.00 0.00 42 1014.2
20260507210959 68 201 0.0 0.0 0.00 0.00 0.00 42 1014.5
20260507210456 66 237 4.0 5.0 0.00 0.00 0.00 47 1014.7
20260507205953 68 212 1.0 2.0 0.00 0.00 0.00 45 1014.4
20260507205450 68 260 2.0 2.0 0.00 0.00 0.00 50 1014.8
20260507204945 67 238 3.0 3.0 0.00 0.00 0.00 46 1014.8
20260507204442 68 218 2.0 2.0 0.00 0.00 0.00 47 1014.9
20260507203940 68 251 0.0 0.0 0.00 0.00 0.00 47 1014.8
20260507203438 66 184 2.0 3.0 0.00 0.00 0.00 50 1014.9
20260507202934 66 209 6.0 7.0 0.00 0.00 0.00 46 1015.0
20260507202431 67 227 2.0 3.0 0.00 0.00 0.00 48 1015.1
20260507201926 66 198 1.0 3.0 0.00 0.00 0.00 46 1015.1
20260507201421 66 223 0.0 0.0 0.00 0.00 0.00 53 1015.3
20260507200919 66 227 3.0 5.0 0.00 0.00 0.00 48 1015.5
20260507200414 67 189 10.0 11.0 0.00 0.00 0.00 45 1015.7
20260507195910 66 208 4.0 6.0 0.00 0.00 0.00 46 1015.7
20260507195408 68 179 5.0 6.0 0.00 0.00 0.00 45 1015.7
20260507194905 67 206 5.0 6.0 0.00 0.00 0.00 49 1015.8
20260507194402 65 257 3.0 7.0 0.00 0.00 0.00 45 1015.9
20260507193858 66 285 6.0 7.0 0.00 0.00 0.00 44 1015.9
20260507193355 66 247 5.0 6.0 0.00 0.00 0.00 49 1015.9
20260507192851 66 221 6.0 6.0 0.00 0.00 0.00 45 1016.0
20260507192347 66 218 7.0 8.0 0.00 0.00 0.00 47 1016.0
20260507191844 67 201 7.0 8.0 0.00 0.00 0.00 47 1016.1
20260507191340 66 185 8.0 9.0 0.00 0.00 0.00 44 1016.1
20260507190838 66 219 4.0 6.0 0.00 0.00 0.00 42 1016.2
20260507190336 66 226 5.0 7.0 0.00 0.00 0.00 46 1016.5
20260507185834 65 219 7.0 8.0 0.00 0.00 0.00 44 1016.5
20260507185331 65 174 7.0 8.0 0.00 0.00 0.00 45 1016.4
20260507184828 65 214 9.0 9.0 0.00 0.00 0.00 43 1016.5
20260507184326 65 230 3.0 5.0 0.00 0.00 0.00 45 1016.5
20260507183822 66 256 5.0 6.0 0.00 0.00 0.00 48 1016.3
20260507183319 66 210 5.0 7.0 0.00 0.00 0.00 45 1016.4
20260507182817 67 286 5.0 7.0 0.00 0.00 0.00 44 1016.5
20260507182312 65 198 4.0 5.0 0.00 0.00 0.00 49 1016.6
20260507181809 67 179 8.0 9.0 0.00 0.00 0.00 42 1016.7
20260507181305 66 250 5.0 7.0 0.00 0.00 0.00 48 1016.5
20260507180802 66 200 9.0 11.0 0.00 0.00 0.00 42 1016.8
20260507180259 66 236 6.0 8.0 0.00 0.00 0.00 45 1016.8
20260507175754 66 192 2.0 2.0 0.00 0.00 0.00 41 1016.8
20260507175251 66 200 6.0 7.0 0.00 0.00 0.00 41 1017.1
20260507174748 66 274 3.0 3.0 0.00 0.00 0.00 45 1017.0
20260507174246 66 277 4.0 5.0 0.00 0.00 0.00 45 1017.3
20260507173744 66 203 4.0 5.0 0.00 0.00 0.00 40 1017.4
20260507173240 65 231 4.0 5.0 0.00 0.00 0.00 44 1017.5
20260507172737 65 206 3.0 3.0 0.00 0.00 0.00 48 1017.6
20260507172229 64 248 3.0 3.0 0.00 0.00 0.00 45 1017.6
20260507171728 64 274 6.0 8.0 0.00 0.00 0.00 45 1017.6
20260507171226 64 256 8.0 10.0 0.00 0.00 0.00 47 1017.6
20260507170723 64 228 4.0 5.0 0.00 0.00 0.00 47 1017.7
20260507170220 65 197 8.0 9.0 0.00 0.00 0.00 44 1018.0
20260507165715 64 259 6.0 7.0 0.00 0.00 0.00 46 1017.9
20260507165212 64 238 4.0 5.0 0.00 0.00 0.00 43 1018.0
20260507164708 64 238 5.0 6.0 0.00 0.00 0.00 46 1018.1
20260507164206 64 200 3.0 3.0 0.00 0.00 0.00 45 1018.2
20260507163702 63 255 3.0 5.0 0.00 0.00 0.00 50 1018.2
20260507163200 64 221 7.0 8.0 0.00 0.00 0.00 45 1018.3
20260507162656 63 237 5.0 6.0 0.00 0.00 0.00 43 1018.0
20260507162152 63 232 4.0 5.0 0.00 0.00 0.00 48 1018.2
20260507161648 63 264 7.0 7.0 0.00 0.00 0.00 49 1018.2
20260507161145 63 270 3.0 5.0 0.00 0.00 0.00 49 1018.1
20260507160641 62 293 4.0 5.0 0.00 0.00 0.00 45 1018.3
20260507160138 63 192 3.0 5.0 0.00 0.00 0.00 49 1018.3
20260507155634 62 225 5.0 5.0 0.00 0.00 0.00 47 1018.4
20260507155130 62 247 5.0 6.0 0.00 0.00 0.00 51 1018.2
20260507154627 62 228 2.0 2.0 0.00 0.00 0.00 45 1018.1
20260507154125 62 208 3.0 3.0 0.00 0.00 0.00 48 1018.3
20260507153621 62 206 4.0 6.0 0.00 0.00 0.00 51 1018.5
20260507153118 61 254 5.0 7.0 0.00 0.00 0.00 48 1018.5
20260507152614 61 227 4.0 5.0 0.00 0.00 0.00 50 1018.4
20260507152110 61 222 4.0 5.0 0.00 0.00 0.00 50 1018.7
20260507151606 61 347 2.0 2.0 0.00 0.00 0.00 46 1018.5
20260507151103 61 215 4.0 5.0 0.00 0.00 0.00 52 1018.6
20260507150600 61 262 4.0 5.0 0.00 0.00 0.00 48 1018.8
20260507150057 61 198 3.0 5.0 0.00 0.00 0.00 58 1018.6
20260507145552 62 238 2.0 2.0 0.00 0.00 0.00 58 1018.8
20260507145050 62 207 1.0 1.0 0.00 0.00 0.00 58 1018.8
20260507144546 61 188 0.0 0.0 0.00 0.00 0.00 56 1018.7
20260507144044 61 204 0.0 0.0 0.00 0.00 0.00 58 1018.6
20260507143541 60 195 1.0 1.0 0.00 0.00 0.00 58 1018.8
20260507143039 59 204 0.0 0.0 0.00 0.00 0.00 59 1018.7
20260507142533 59 218 0.0 0.0 0.00 0.00 0.00 62 1018.8
20260507142030 58 155 0.0 1.0 0.00 0.00 0.00 64 1018.9
20260507141526 57 163 1.0 1.0 0.00 0.00 0.00 65 1019.1
20260507141023 56 169 1.0 1.0 0.00 0.00 0.00 67 1019.4
20260507140520 56 153 0.0 0.0 0.00 0.00 0.00 68 1019.2
20260507140018 56 193 0.0 0.0 0.00 0.00 0.00 74 1019.0
20260507135514 53 179 0.0 0.0 0.00 0.00 0.00 76 1019.0
20260507135012 52 221 0.0 0.0 0.00 0.00 0.00 82 1019.1
20260507134508 51 188 0.0 0.0 0.00 0.00 0.00 90 1019.1
20260507134004 50 136 0.0 0.0 0.00 0.00 0.00 96 1019.1
20260507133500 50 178 0.0 0.0 0.00 0.00 0.00 98 1019.2
20260507132958 48 171 0.0 0.0 0.00 0.00 0.00 98 1019.5
20260507132454 47 181 0.0 0.0 0.00 0.00 0.00 98 1019.3
20260507131951 47 188 0.0 0.0 0.00 0.00 0.00 98 1019.5
20260507131448 46 204 0.0 0.0 0.00 0.00 0.00 98 1019.3
20260507130945 46 215 0.0 0.0 0.00 0.00 0.00 99 1019.5
20260507130442 45 213 0.0 0.0 0.00 0.00 0.00 98 1019.6
20260507125941 45 234 0.0 0.0 0.00 0.00 0.00 98 1019.4
20260507125438 45 212 0.0 0.0 0.00 0.00 0.00 98 1019.8
20260507124930 45 225 0.0 0.0 0.00 0.00 0.00 98 1019.7
20260507124426 45 210 0.0 0.0 0.00 0.00 0.00 98 1019.6
20260507123924 44 220 0.0 0.0 0.00 0.00 0.00 98 1019.4
20260507123422 44 224 0.0 0.0 0.00 0.00 0.00 98 1019.5
20260507122918 44 226 0.0 0.0 0.00 0.00 0.00 98 1019.4
20260507122413 43 239 0.0 0.0 0.00 0.00 0.00 98 1019.4
20260507121909 43 269 0.0 0.0 0.00 0.00 0.00 98 1019.3
20260507121405 43 242 0.0 0.0 0.00 0.00 0.00 98 1019.1
20260507120902 43 182 0.0 0.0 0.00 0.00 0.00 98 1019.1
20260507120358 43 174 0.0 0.0 0.00 0.00 0.00 98 1019.1
20260507115855 42 230 0.0 0.0 0.00 0.00 0.00 98 1019.1
20260507115351 42 234 0.0 0.0 0.00 0.00 0.00 98 1019.2
20260507114846 41 245 0.0 0.0 0.00 0.00 0.00 98 1018.9
20260507114343 41 258 0.0 0.0 0.00 0.00 0.00 98 1019.0
20260507113841 41 246 0.0 0.0 0.00 0.00 0.00 98 1018.9
20260507113338 41 255 0.0 0.0 0.00 0.00 0.00 98 1018.8
20260507112835 41 255 0.0 0.0 0.00 0.00 0.00 98 1018.9
20260507112332 41 237 0.0 0.0 0.00 0.00 0.00 98 1018.6
20260507111830 41 241 0.0 0.0 0.00 0.00 0.00 98 1018.9
20260507111327 41 297 0.0 0.0 0.00 0.00 0.00 98 1019.0
20260507110822 41 293 0.0 0.0 0.00 0.00 0.00 98 1018.8
20260507110313 41 261 0.0 0.0 0.00 0.00 0.00 98 1018.9
20260507105810 41 264 0.0 0.0 0.00 0.00 0.00 98 1018.9
20260507105307 41 246 0.0 0.0 0.00 0.00 0.00 98 1018.7
20260507104804 41 274 0.0 0.0 0.00 0.00 0.00 98 1018.6
20260507104300 41 240 0.0 0.0 0.00 0.00 0.00 98 1018.9
20260507103756 41 246 0.0 0.0 0.00 0.00 0.00 98 1018.8
20260507103252 41 266 0.0 0.0 0.00 0.00 0.00 98 1018.9
20260507102749 42 261 0.0 0.0 0.00 0.00 0.00 98 1018.8
20260507102246 42 277 0.0 0.0 0.00 0.00 0.00 98 1018.6
20260507101741 42 241 0.0 0.0 0.00 0.00 0.00 98 1018.8
20260507101231 42 235 0.0 0.0 0.00 0.00 0.00 98 1018.7
20260507100728 42 227 0.0 0.0 0.00 0.00 0.00 98 1018.5
20260507100227 42 225 0.0 0.0 0.00 0.00 0.00 98 1018.5
20260507095724 43 241 0.0 0.0 0.00 0.00 0.00 98 1018.6
20260507095221 43 212 0.0 0.0 0.00 0.00 0.00 98 1018.6
20260507094718 43 176 0.0 0.0 0.00 0.00 0.00 98 1018.5
20260507094215 43 207 0.0 0.0 0.00 0.00 0.00 98 1018.8
20260507093711 43 223 0.0 0.0 0.00 0.00 0.00 98 1018.7
20260507093210 43 242 0.0 0.0 0.00 0.00 0.00 98 1018.7
20260507092707 43 213 0.0 0.0 0.00 0.00 0.00 98 1018.8
20260507092203 43 190 0.0 0.0 0.00 0.00 0.00 98 1018.8
20260507091700 44 197 0.0 0.0 0.00 0.00 0.00 98 1018.7
20260507091156 44 171 0.0 0.0 0.00 0.00 0.00 98 1018.7
20260507090652 44 229 0.0 0.0 0.00 0.00 0.00 98 1018.4
20260507090149 44 235 0.0 0.0 0.00 0.00 0.00 98 1018.4
20260507085646 44 201 0.0 0.0 0.00 0.00 0.00 98 1018.3
20260507085143 44 239 0.0 0.0 0.00 0.00 0.00 98 1018.3
20260507084640 44 228 0.0 0.0 0.00 0.00 0.00 97 1018.6
20260507084136 43 165 0.0 0.0 0.00 0.00 0.00 97 1018.3
20260507083633 43 230 0.0 0.0 0.00 0.00 0.00 97 1018.4
20260507083130 43 224 0.0 0.0 0.00 0.00 0.00 97 1018.5
20260507082625 43 218 0.0 0.0 0.00 0.00 0.00 97 1018.5
20260507082122 43 233 0.0 0.0 0.00 0.00 0.00 97 1018.7
20260507081619 43 249 0.0 0.0 0.00 0.00 0.00 97 1018.4
20260507081115 42 235 0.0 0.0 0.00 0.00 0.00 97 1018.7
20260507080612 42 235 0.0 0.0 0.00 0.00 0.00 97 1018.7
20260507080109 42 221 0.0 0.0 0.00 0.00 0.00 97 1018.5
20260507075603 42 220 0.0 0.0 0.00 0.00 0.00 97 1018.7
20260507075100 42 255 0.0 0.0 0.00 0.00 0.00 97 1018.9
20260507074557 41 228 0.0 0.0 0.00 0.00 0.00 97 1018.9
20260507074055 41 259 0.0 0.0 0.00 0.00 0.00 97 1018.8
20260507073550 41 244 0.0 0.0 0.00 0.00 0.00 97 1018.8
20260507073047 41 227 0.0 0.0 0.00 0.00 0.00 97 1019.0
20260507072545 41 270 0.0 0.0 0.00 0.00 0.00 97 1019.2
20260507072042 41 236 0.0 0.0 0.00 0.00 0.00 97 1019.0
20260507071539 41 238 0.0 0.0 0.00 0.00 0.00 97 1019.3
20260507071036 41 241 0.0 0.0 0.00 0.00 0.00 97 1019.2
20260507070533 41 243 0.0 0.0 0.00 0.00 0.00 96 1019.3
20260507070030 41 224 0.0 0.0 0.00 0.00 0.00 96 1019.5
20260507065526 42 230 0.0 0.0 0.00 0.00 0.00 96 1019.4
20260507065023 42 235 0.0 0.0 0.00 0.00 0.00 96 1019.5
20260507064521 42 237 0.0 0.0 0.00 0.00 0.00 96 1019.6
20260507064020 42 261 1.0 1.0 0.00 0.00 0.00 96 1019.5
20260507063516 42 242 0.0 0.0 0.00 0.00 0.00 96 1019.2
20260507063014 42 272 0.0 0.0 0.00 0.00 0.00 96 1019.4
20260507062510 42 299 0.0 0.0 0.00 0.00 0.00 96 1019.2
20260507062008 42 266 0.0 0.0 0.00 0.00 0.00 96 1019.2
20260507061506 42 267 1.0 1.0 0.00 0.00 0.00 96 1019.3
20260507061003 42 278 1.0 1.0 0.00 0.00 0.00 96 1019.4
20260507060501 42 189 0.0 0.0 0.00 0.00 0.00 96 1019.5
20260507055957 42 290 1.0 1.0 0.00 0.00 0.00 95 1019.4
20260507055452 42 280 1.0 1.0 0.00 0.00 0.00 95 1019.6
20260507054949 42 224 0.0 1.0 0.00 0.00 0.00 95 1019.4
20260507054445 41 259 0.0 1.0 0.00 0.00 0.00 95 1019.4
20260507053943 42 303 1.0 1.0 0.00 0.00 0.00 95 1019.4
20260507053440 42 245 0.0 0.0 0.00 0.00 0.00 95 1019.3
20260507052938 42 192 0.0 0.0 0.00 0.00 0.00 95 1019.4
20260507052436 42 253 0.0 0.0 0.00 0.00 0.00 94 1019.5
20260507051933 42 256 0.0 0.0 0.00 0.00 0.00 94 1019.5
20260507051430 42 200 0.0 0.0 0.00 0.00 0.00 94 1019.8
20260507050927 42 218 0.0 0.0 0.00 0.00 0.00 94 1019.7
20260507050423 43 229 0.0 0.0 0.00 0.00 0.00 94 1019.6
20260507045920 43 207 0.0 0.0 0.00 0.07 0.07 94 1020.0
20260507045417 43 225 0.0 0.0 0.00 0.07 0.07 93 1019.5
20260507044914 43 253 0.0 0.0 0.00 0.07 0.07 93 1019.6
20260507044410 43 270 0.0 1.0 0.00 0.07 0.07 93 1019.3
20260507043906 43 294 1.0 2.0 0.00 0.07 0.07 92 1019.4
20260507043357 43 307 0.0 0.0 0.00 0.07 0.07 92 1019.5
20260507042853 43 282 0.0 0.0 0.00 0.07 0.07 92 1019.4
20260507042350 44 261 0.0 0.0 0.00 0.07 0.07 91 1019.2
20260507041846 44 291 0.0 0.0 0.00 0.07 0.07 91 1019.4
20260507041343 44 297 0.0 0.0 0.00 0.07 0.07 91 1019.3
20260507040840 44 234 0.0 0.0 0.00 0.07 0.07 90 1019.4
20260507040336 44 278 0.0 0.0 0.00 0.07 0.07 90 1019.4
20260507035832 44 272 0.0 0.0 0.00 0.07 0.07 90 1019.5
20260507035327 44 258 0.0 0.0 0.00 0.07 0.07 89 1019.8
20260507034825 44 261 0.0 0.0 0.00 0.07 0.07 88 1019.4
20260507034322 44 233 0.0 0.0 0.00 0.07 0.07 88 1019.5
20260507033820 44 218 0.0 0.0 0.00 0.07 0.07 87 1019.6
20260507033318 44 243 1.0 1.0 0.00 0.07 0.07 87 1019.3
20260507032814 45 293 1.0 1.0 0.00 0.07 0.07 86 1019.4
20260507032310 45 226 0.0 0.0 0.00 0.07 0.07 86 1019.4
20260507031807 45 298 0.0 0.0 0.00 0.07 0.07 84 1019.4
20260507031304 45 257 0.0 0.0 0.00 0.07 0.07 83 1019.4
20260507030800 46 253 0.0 0.0 0.00 0.07 0.07 82 1019.1
20260507030258 46 280 0.0 0.0 0.00 0.07 0.07 82 1019.2
20260507025755 46 294 0.0 0.0 0.00 0.07 0.07 81 1019.1
20260507025253 46 255 0.0 0.0 0.00 0.07 0.07 80 1019.0
20260507024750 46 245 0.0 0.0 0.00 0.07 0.07 78 1019.1
20260507024247 46 270 0.0 0.0 0.00 0.07 0.07 77 1019.2
20260507023743 46 279 0.0 0.0 0.00 0.07 0.07 75 1019.0
20260507023240 46 239 0.0 0.0 0.00 0.07 0.07 75 1018.9
20260507022737 47 241 0.0 0.0 0.00 0.07 0.07 75 1019.0
20260507022233 47 343 0.0 0.0 0.00 0.07 0.07 74 1018.8
20260507021729 47 20 0.0 0.0 0.00 0.07 0.07 73 1018.7
20260507021225 48 32 0.0 0.0 0.00 0.07 0.07 72 1018.7
20260507020724 48 84 0.0 0.0 0.00 0.07 0.07 73 1018.7
20260507020219 48 225 0.0 0.0 0.00 0.07 0.07 72 1018.7
20260507015717 49 136 0.0 0.0 0.00 0.07 0.07 69 1018.4
20260507015215 48 38 2.0 2.0 0.00 0.07 0.07 71 1018.5
20260507014711 49 332 1.0 1.0 0.00 0.07 0.07 69 1018.4
20260507014207 50 18 1.0 1.0 0.00 0.07 0.07 68 1018.3
20260507013704 50 40 1.0 1.0 0.00 0.07 0.07 68 1018.4
20260507013202 50 23 1.0 1.0 0.00 0.07 0.07 66 1018.5
20260507012659 51 55 1.0 1.0 0.00 0.07 0.07 67 1018.3
20260507012154 51 306 1.0 1.0 0.00 0.07 0.07 67 1018.1
20260507011652 52 280 0.0 0.0 0.00 0.07 0.07 66 1018.2
20260507011148 53 278 0.0 1.0 0.00 0.07 0.07 63 1018.3
20260507010643 53 254 0.0 1.0 0.00 0.07 0.07 64 1018.0
20260507010139 54 274 0.0 0.0 0.00 0.07 0.07 58 1017.6
20260507005637 55 280 1.0 1.0 0.00 0.07 0.07 57 1017.6
20260507005133 56 345 1.0 2.0 0.00 0.07 0.07 55 1017.7
20260507004630 57 290 1.0 1.0 0.00 0.07 0.07 45 1017.6
20260507004128 58 352 2.0 2.0 0.00 0.07 0.07 45 1017.7
20260507003624 58 315 1.0 1.0 0.00 0.07 0.07 45 1017.5
20260507003118 59 359 3.0 5.0 0.00 0.07 0.07 43 1017.6
20260507002615 59 313 3.0 5.0 0.00 0.07 0.07 45 1017.7
20260507002111 59 357 3.0 3.0 0.00 0.07 0.07 43 1017.5
20260507001608 59 316 3.0 3.0 0.00 0.07 0.07 43 1017.3
20260507001106 60 1 4.0 5.0 0.00 0.07 0.07 41 1017.5
20260507000602 60 320 5.0 7.0 0.00 0.07 0.07 39 1017.7
20260507000057 60 215 1.0 1.0 0.00 0.07 0.07 40 1017.2
20260506235555 60 332 2.0 2.0 0.00 0.07 0.07 41 1017.2
20260506235050 60 9 4.0 5.0 0.00 0.07 0.07 42 1017.4